Location: Sweet Grass
(48.9965°N, 111.9649°W)
Time: 12:46:37
(UTC+00:00)

PRISM - Visible Passes

Search period start: 28 March 2023 00:00
Search period end: 07 April 2023 00:00
Orbit: 542 x 564 km, 98.3° (Epoch: 27 March)

Date Brightness Start Highest point End Pass type
(mag) Time Alt. Az. Time Alt. Az. Time Alt. Az.
28 Mar ? 12:41:35 10° ENE 12:43:14 12° E 12:44:52 10° ESE visible
29 Mar ? 12:38:35 10° ENE 12:39:46 11° E 12:40:57 10° ESE visible
30 Mar ? 12:36:05 10° E 12:36:16 10° E 12:36:27 10° E visible
